Weather in Mys

Russia / Omsk Oblast     56°20′56″N   75°26′17″E
temp.,
°C
wind,
m/s
gust,
m/s
humid.,
%
clouds,
%
prec.,
mm/h
press.,
hPa
HPBL,
m
13 may, thu
thu1300:00+8n367291 0.0 1020142
03:00+6nnw3981100 0.0 1020265
06:00+7nnw41063100 0.0 1021401
09:00+11nnw5841100 0.0 1020980
12:00+15nnw4631100 0.0 10181496
15:00+14wnw764995 0.0 1018846
18:00+10nnw477746 0.1 1019504
21:00+11n3676100 0.0 1020338
14 may, fri
fri1400:00+9nnw368935 0.0 1021113
03:00+7n3996100 0.0 1023225
06:00+6n4985100 0.0 1026365
09:00+10n464899 0.0 1027690
12:00+15n342598 0.0 10261149
15:00+18nw442231 0.0 10251391
18:00+19w46255 0.0 10251241
21:00+14wsw47434 0.0 102491
15 may, sat
sat1500:00+12sw4105014 0.0 1023163
03:00+12wsw41355100 0.1 1022267
06:00+12sw4147296 1.2 1021349
09:00+19wsw695110 0.1 1019482
12:00+26w683734 0.1 10181005
15:00+29wnw793037 0.0 10163180
18:00+28w7103327 0.0 10142147
21:00+21wsw485111 0.0 1014144
16 may, sun
sun1600:00+16nne0183100 1.3 101618
03:00+14wnw3787100 0.6 1014146
06:00+14wnw388951 0.6 1015247
09:00+19nw36630 0.0 1016582
12:00+24wnw45436 0.0 10151575
15:00+26nw57348 0.0 10152363
18:00+25nw573423 0.0 10142062
21:00+20wsw495492 0.0 1013142
17 may, mon
mon1700:00+18wsw41357100 0.0 1012238
03:00+17wsw4126299 0.0 1012215
06:00+17wsw512645 0.0 1011246
09:00+24w59411 0.0 1011470
12:00+28wnw712295 0.0 10112496
15:00+29wnw711274 0.0 10113186
18:00+27nnw673530 0.0 10112009
21:00+20ene496254 0.0 1011227